Tracking 19245 objects as of 17-Aug-2018
HD Live streaming from Space Station
objects crossing your sky now

NOAA 16 DEB

Track NOAA 16 DEB now!
10-day predictions


NORAD ID: 41140
Int'l Code: 2000-055BX
Perigee: 764.0 km
Apogee: 862.1 km
Inclination: 98.8 °
Period: 101.0 minutes
Semi major axis: 7184 km
RCS: Unknown
Launch date: September 21, 2000
Source: United States (US)
Launch site: AIR FORCE WESTERN TEST RANGE (AFWTR)

Note: This is SATELLITE DEBRIS
aabbcc
Your satellite tracking list
Your tracking list is empty




NASA's NSSDC Master Catalog

Two Line Element Set (TLE):
1 41140U 00055BX  18228.45865677  .00000284  00000-0  13476-3 0  9997
2 41140  98.8044 314.7970 0068273  86.0556 274.8425 14.25759243141361
Source of the keplerian elements: AFSPC